This is the latest recevied weather packets stored in our database for station/object W7MB. If no packets are shown the sender has not sent any weather packets the latest 10 day(s).
| Time | Temp. | Humidity | Pressure | Rain* | Wind** | Luminosity | Snow |
|---|---|---|---|---|---|---|---|
| 1778034243 | 22.78° C | 46% | 1010.6 hPa | 0 mm | - | - | - |
| 1778033883 | 23.33° C | 44% | 1010.6 hPa | 0 mm | - | - | - |
| 1778033524 | 23.33° C | 43% | 1010.6 hPa | 0 mm | - | - | - |
| 1778033163 | 24.44° C | 42% | 1010.5 hPa | 0 mm | - | - | - |
| 1778032803 | 25° C | 41% | 1010.4 hPa | 0 mm | - | - | - |
| 1778032443 | 25.56° C | 39% | 1010.4 hPa | 0 mm | - | - | - |
| 1778032084 | 25.56° C | 39% | 1010.4 hPa | 0 mm | - | - | - |
| 1778031723 | 25.56° C | 37% | 1010.4 hPa | 0 mm | - | - | - |
| 1778031363 | 26.11° C | 38% | 1010.3 hPa | 0 mm | - | - | - |
| 1778031004 | 26.11° C | 36% | 1010.3 hPa | 0 mm | - | - | - |
| 1778030643 | 26.67° C | 36% | 1010.2 hPa | 0 mm | - | - | - |
| 1778030283 | 27.22° C | 33% | 1010.2 hPa | 0 mm | - | - | - |
| 1778029923 | 27.22° C | 34% | 1010.2 hPa | 0 mm | - | - | - |
| 1778029563 | 27.22° C | 33% | 1010.2 hPa | 0 mm | - | - | - |
| 1778029204 | 27.78° C | 33% | 1010.2 hPa | 0 mm | - | - | - |
| 1778028843 | 27.78° C | 32% | 1010.1 hPa | 0 mm | - | - | - |
| 1778028483 | 28.33° C | 30% | 1010 hPa | 0 mm | - | - | - |
| 1778028123 | 28.33° C | 32% | 1010.1 hPa | 0 mm | - | - | - |
| 1778027763 | 28.33° C | 31% | 1010.1 hPa | 0 mm | - | - | - |
| 1778027403 | 28.89° C | 30% | 1010.2 hPa | 0 mm | - | - | - |
| 1778027043 | 29.44° C | 29% | 1010 hPa | 0 mm | - | - | - |
| 1778026683 | 29.44° C | 27% | 1010 hPa | 0 mm | - | - | - |
| 1778026323 | 30° C | 26% | 1010 hPa | 0 mm | - | - | - |
| 1778025963 | 30° C | 26% | 1010 hPa | 0 mm | - | - | - |
| 1778025604 | 30.56° C | 25% | 1010.3 hPa | 0 mm | - | - | - |
* Rain latest hour (hover to see other rain measurements)
** Current wind speed in m/s (hover to see current wind gust speed)